HADES-D (SO-121)

Last updated on Wed Nov 06 2024 00:03:02 GMT+0000 (Coordinated Universal Time)

1 58567U 23174CY 24309.97818561 .05857091 24053-5 40431-2 0 9999 2 58567 97.4081 29.7179 0009578 300.1764 59.8573 16.16392543 55554

Satellite not in orbit